Showing default

COSMOS 2165, 21779

Orbit data source: Space-Track

COSMOS 2165, 21779 is a payload satellite owned by UNKS RF (CIS) in LEO that was launched on Tue, 12 Nov 1991 UTC via a TSIKLON-3 launch vehicle from the Plesetsk Missile And Space Complex (PKMTR). Payload-class satellites include a variety of spacecraft equipped with specific instruments for various scientific and technological missions. These include communications satellites like Starlink; space stations such as the ISS; scientific satellites like the Hubble; Earth observation satellites from companies like Planet Labs, Umbra, and HawkEye 360; GPS; miniature CubeSats for education and research; and military/defense satellites.

Loading next visibility...
Identifier
21779, 1991-077A
Orbit
LEO
Country
Flag of CISCIS
Related business
Manufacturer
NPO PM
Mission
Defense Communications
Bus & Motor
STRELA-3, Unknown motor
Mass
225 kg wet, 225 kg dry
Launch date (UTC)
1991-11-12 (34 years ago)
Launch vehicle
TSIKLON-3
Launch site
Plesetsk Missile And Space Complex (PKMTR)
Object type
Payload
Rocket body
Debris
Shape & HBR
Cyl, 0.8 m
Radar Cross Section
1.257 m², Large (>1 m²)

Expand to show TLE details & history
Last TLE update: 12 hours ago

TLE from 12 hours ago
0 COSMOS 2165
1 21779U 91077A   25310.62188873  .00000044  00000-0  17859-3 0  9995
2 21779  82.6108  14.3828 0010399 195.0966 323.3597 12.64913762568852
Epoch: 2025-11-06T14:55Z
TLE epoch observation values (Epoch: 2025-11-06T14:55:31.186Z)
Latitude
21.43617°
Longitude
-78.47889°
Altitude
1,398.716 km
Speed
7.165 km/s
True Right ascension
12h 45m 54s
True Declination
21° 19' 45"
Sunlit
Object was in daylight at epoch
Visualization orbit readout
Latitude
Unknown
Longitude
Unknown
Altitude
Unknown
Speed
Unknown
Apparent Right ascension
Unknown
Apparent Declination
Unknown
Sunlit
N/A
Visualization observer readout
Local Sidereal Time
22:32:09
Azimuth
Unknown
Elevation
Unknown
Doppler factor
Unknown
Orbital elements
Apogee altitude
1,408.133 km
Perigee altitude
1,391.956 km
Semi-major axis
7,778.181 km
Eccentricity
0.00104
Inclination
82.6108°
RAAN
14.3828°
Arg. of periapsis
195.0966°
True anomaly
323.28851°
Mean anomaly
323.3597°
Eccentric anomaly
323.32411°
Mean motion
3.16392 °/min
Orbital period
113.78 mins
BSTAR
0.00017859
Loading maneuver chart data...
Computing Atmospheric mass density...
Loading historical data...
Loading historical data...
Loading historical data...
Loading historical data...
Loading historical data...
Loading historical data...
Loading historical data...

Documentation

Showing up to 5 results
|